This is the latest recevied weather packets stored in our database for station/object AA6HF. If no packets are shown the sender has not sent any weather packets the latest 10 day(s).
| Time | Temp. | Humidity | Pressure | Rain* | Wind** | Luminosity | Snow |
|---|---|---|---|---|---|---|---|
| 1777848337 | 29.44° C | 28% | 1004.1 hPa | 0 mm | - | - | - |
| 1777848037 | 29.44° C | 28% | 1004.2 hPa | 0 mm | - | - | - |
| 1777847737 | 29.44° C | 28% | 1004 hPa | 0 mm | - | - | - |
| 1777847437 | 29.44° C | 28% | 1004.1 hPa | 0 mm | - | - | - |
| 1777847137 | 29.44° C | 29% | 1004.3 hPa | 0 mm | - | - | - |
| 1777846837 | 29.44° C | 28% | 1004.3 hPa | 0 mm | - | - | - |
| 1777846537 | 29.44° C | 28% | 1004.3 hPa | 0 mm | - | - | - |
| 1777846237 | 29.44° C | 29% | 1004.3 hPa | 0 mm | - | - | - |
| 1777845937 | 29.44° C | 29% | 1004.4 hPa | 0 mm | - | - | - |
| 1777845637 | 29.44° C | 29% | 1004.6 hPa | 0 mm | - | - | - |
| 1777845337 | 29.44° C | 29% | 1004.5 hPa | 0 mm | - | - | - |
| 1777845037 | 29.44° C | 29% | 1004.5 hPa | 0 mm | - | - | - |
| 1777844737 | 29.44° C | 29% | 1004.6 hPa | 0 mm | - | - | - |
| 1777844437 | 29.44° C | 27% | 1004.7 hPa | 0 mm | - | - | - |
| 1777844137 | 29.44° C | 30% | 1004.7 hPa | 0 mm | - | - | - |
| 1777843837 | 30° C | 28% | 1004.7 hPa | 0 mm | - | - | - |
| 1777843537 | 30° C | 28% | 1004.8 hPa | 0 mm | - | - | - |
| 1777843237 | 30° C | 28% | 1004.8 hPa | 0 mm | - | - | - |
| 1777842937 | 30° C | 28% | 1004.8 hPa | 0 mm | - | - | - |
| 1777842637 | 30° C | 27% | 1004.9 hPa | 0 mm | - | - | - |
| 1777842337 | 30° C | 26% | 1005 hPa | 0 mm | - | - | - |
| 1777842037 | 30° C | 28% | 1005.1 hPa | 0 mm | - | - | - |
| 1777841737 | 30° C | 26% | 1005.1 hPa | 0 mm | - | - | - |
| 1777841437 | 30° C | 28% | 1005.2 hPa | 0 mm | - | - | - |
| 1777841137 | 30° C | 27% | 1005.3 hPa | 0 mm | - | - | - |
* Rain latest hour (hover to see other rain measurements)
** Current wind speed in m/s (hover to see current wind gust speed)